Year,Month,Day,Hour,Minute,Value (Times are PST for temperature in C)
2016,06,20,00,00,13.70
2016,06,20,00,01,13.70
2016,06,20,00,02,13.70
2016,06,20,00,03,13.70
2016,06,20,00,04,13.70
2016,06,20,00,05,13.70
2016,06,20,00,06,13.70
2016,06,20,00,07,13.70
2016,06,20,00,08,13.70
2016,06,20,00,09,13.70
2016,06,20,00,10,13.70
2016,06,20,00,11,13.60
2016,06,20,00,12,13.60
2016,06,20,00,13,13.60
2016,06,20,00,14,13.60
2016,06,20,00,15,13.60
2016,06,20,00,16,13.60
2016,06,20,00,17,13.60
2016,06,20,00,18,13.60
2016,06,20,00,19,13.50
2016,06,20,00,20,13.50
2016,06,20,00,21,13.50
2016,06,20,00,22,13.50
2016,06,20,00,23,13.50
2016,06,20,00,24,13.50
2016,06,20,00,25,13.50
2016,06,20,00,26,13.50
2016,06,20,00,27,13.50
2016,06,20,00,28,13.40
2016,06,20,00,29,13.40
2016,06,20,00,30,13.40
2016,06,20,00,31,13.40
2016,06,20,00,32,13.40
2016,06,20,00,33,13.40
2016,06,20,00,34,13.40
2016,06,20,00,35,13.30
2016,06,20,00,36,13.30
2016,06,20,00,37,13.30
2016,06,20,00,38,13.30
2016,06,20,00,39,13.30
2016,06,20,00,40,13.30
2016,06,20,00,41,13.30
2016,06,20,00,42,13.30
2016,06,20,00,43,13.20
2016,06,20,00,44,13.20
2016,06,20,00,45,13.20
2016,06,20,00,46,13.20
2016,06,20,00,47,13.20
2016,06,20,00,48,13.20
2016,06,20,00,49,13.20
2016,06,20,00,50,13.20
2016,06,20,00,51,13.20
2016,06,20,00,52,13.20
2016,06,20,00,53,13.20
2016,06,20,00,54,13.20
2016,06,20,00,55,13.20
2016,06,20,00,56,13.20
2016,06,20,00,57,13.20
2016,06,20,00,58,13.20
2016,06,20,00,59,13.20
2016,06,20,01,00,13.20
2016,06,20,01,01,13.10
2016,06,20,01,02,13.10
2016,06,20,01,03,13.10
2016,06,20,01,04,13.10
2016,06,20,01,05,13.10
2016,06,20,01,06,13.10
2016,06,20,01,07,13.10
2016,06,20,01,08,13.10
2016,06,20,01,09,13.10
2016,06,20,01,10,13.10
2016,06,20,01,11,13.10
2016,06,20,01,12,13.10
2016,06,20,01,13,13.10
2016,06,20,01,14,13.10
2016,06,20,01,15,13.10
2016,06,20,01,16,13.10
2016,06,20,01,17,13.10
2016,06,20,01,18,13.10
2016,06,20,01,19,13.10
2016,06,20,01,20,13.10
2016,06,20,01,21,13.10
2016,06,20,01,22,13.10
2016,06,20,01,23,13.10
2016,06,20,01,24,13.10
2016,06,20,01,25,13.10
2016,06,20,01,26,13.10
2016,06,20,01,27,13.10
2016,06,20,01,28,13.10
2016,06,20,01,29,13.10
2016,06,20,01,30,13.10
2016,06,20,01,31,13.10
2016,06,20,01,32,13.10
2016,06,20,01,33,13.10
2016,06,20,01,34,13.10
2016,06,20,01,35,13.10
2016,06,20,01,36,13.10
2016,06,20,01,37,13.10
2016,06,20,01,38,13.10
2016,06,20,01,39,13.10
2016,06,20,01,40,13.10
2016,06,20,01,41,13.10
2016,06,20,01,42,13.10
2016,06,20,01,43,13.10
2016,06,20,01,44,13.10
2016,06,20,01,45,13.10
2016,06,20,01,46,13.10
2016,06,20,01,47,13.10
2016,06,20,01,48,13.10
2016,06,20,01,49,13.10
2016,06,20,01,50,13.10
2016,06,20,01,51,13.10
2016,06,20,01,52,13.10
2016,06,20,01,53,13.10
2016,06,20,01,54,13.10
2016,06,20,01,55,13.10
2016,06,20,01,56,13.10
2016,06,20,01,57,13.10
2016,06,20,01,58,13.10
2016,06,20,01,59,13.10
2016,06,20,02,00,13.10
2016,06,20,02,01,13.10
2016,06,20,02,02,13.00
2016,06,20,02,03,13.00
2016,06,20,02,04,13.00
2016,06,20,02,05,13.00
2016,06,20,02,06,13.00
2016,06,20,02,07,13.00
2016,06,20,02,08,13.00
2016,06,20,02,09,13.00
2016,06,20,02,10,13.00
2016,06,20,02,11,13.00
2016,06,20,02,12,13.00
2016,06,20,02,13,13.10
2016,06,20,02,14,13.10
2016,06,20,02,15,13.10
2016,06,20,02,16,13.10
2016,06,20,02,17,13.10
2016,06,20,02,18,13.20
2016,06,20,02,19,13.20
2016,06,20,02,20,13.20
2016,06,20,02,21,13.20
2016,06,20,02,22,13.20
2016,06,20,02,23,13.20
2016,06,20,02,24,13.20
2016,06,20,02,25,13.20
2016,06,20,02,26,13.20
2016,06,20,02,27,13.20
2016,06,20,02,28,13.20
2016,06,20,02,29,13.20
2016,06,20,02,30,13.20
2016,06,20,02,31,13.20
2016,06,20,02,32,13.20
2016,06,20,02,33,13.20
2016,06,20,02,34,13.20
2016,06,20,02,35,13.20
2016,06,20,02,36,13.20
2016,06,20,02,37,13.20
2016,06,20,02,38,13.20
2016,06,20,02,39,13.20
2016,06,20,02,40,13.20
2016,06,20,02,41,13.20
2016,06,20,02,42,13.20
2016,06,20,02,43,13.10
2016,06,20,02,44,13.20
2016,06,20,02,45,13.20
2016,06,20,02,46,13.20
2016,06,20,02,47,13.20
2016,06,20,02,48,13.20
2016,06,20,02,49,13.10
2016,06,20,02,50,13.10
2016,06,20,02,51,13.10
2016,06,20,02,52,13.10
2016,06,20,02,53,13.10
2016,06,20,02,54,13.10
2016,06,20,02,55,13.10
2016,06,20,02,56,13.10
2016,06,20,02,57,13.10
2016,06,20,02,58,13.10
2016,06,20,02,59,13.10
2016,06,20,03,00,13.10
2016,06,20,03,01,13.10
2016,06,20,03,02,13.10
2016,06,20,03,03,13.10
2016,06,20,03,04,13.10
2016,06,20,03,05,13.10
2016,06,20,03,06,13.10
2016,06,20,03,07,13.10
2016,06,20,03,08,13.10
2016,06,20,03,09,13.10
2016,06,20,03,10,13.10
2016,06,20,03,11,13.00
2016,06,20,03,12,13.00
2016,06,20,03,13,13.00
2016,06,20,03,14,13.00
2016,06,20,03,15,13.00
2016,06,20,03,16,13.00
2016,06,20,03,17,13.00
2016,06,20,03,18,13.00
2016,06,20,03,19,13.00
2016,06,20,03,20,13.00
2016,06,20,03,21,13.00
2016,06,20,03,22,13.00
2016,06,20,03,23,13.00
2016,06,20,03,24,13.00
2016,06,20,03,25,13.00
2016,06,20,03,26,13.00
2016,06,20,03,27,13.00
2016,06,20,03,28,13.00
2016,06,20,03,29,13.00
2016,06,20,03,30,13.00
2016,06,20,03,31,13.00
2016,06,20,03,32,13.00
2016,06,20,03,33,13.00
2016,06,20,03,34,13.00
2016,06,20,03,35,13.00
2016,06,20,03,36,13.00
2016,06,20,03,37,13.00
2016,06,20,03,38,13.00
2016,06,20,03,39,13.00
2016,06,20,03,40,13.00
2016,06,20,03,41,13.00
2016,06,20,03,42,13.00
2016,06,20,03,43,13.00
2016,06,20,03,44,13.00
2016,06,20,03,45,13.10
2016,06,20,03,46,13.10
2016,06,20,03,47,13.10
2016,06,20,03,48,13.10
2016,06,20,03,49,13.10
2016,06,20,03,50,13.10
2016,06,20,03,51,13.10
2016,06,20,03,52,13.10
2016,06,20,03,53,13.10
2016,06,20,03,54,13.10
2016,06,20,03,55,13.10
2016,06,20,03,56,13.00
2016,06,20,03,57,13.00
2016,06,20,03,58,13.00
2016,06,20,03,59,13.00
2016,06,20,04,00,13.00
2016,06,20,04,01,13.00
2016,06,20,04,02,13.00
2016,06,20,04,03,13.00
2016,06,20,04,04,13.00
2016,06,20,04,05,12.90
2016,06,20,04,06,12.90
2016,06,20,04,07,12.90
2016,06,20,04,08,12.90
2016,06,20,04,09,12.90
2016,06,20,04,10,12.90
2016,06,20,04,11,12.90
2016,06,20,04,12,12.90
2016,06,20,04,13,12.90
2016,06,20,04,14,12.90
2016,06,20,04,15,12.80
2016,06,20,04,16,12.80
2016,06,20,04,17,12.80
2016,06,20,04,18,12.80
2016,06,20,04,19,12.80
2016,06,20,04,20,12.80
2016,06,20,04,21,12.80
2016,06,20,04,22,12.80
2016,06,20,04,23,12.80
2016,06,20,04,24,12.70
2016,06,20,04,25,12.70
2016,06,20,04,26,12.70
2016,06,20,04,27,12.70
2016,06,20,04,28,12.70
2016,06,20,04,29,12.70
2016,06,20,04,30,12.70
2016,06,20,04,31,12.70
2016,06,20,04,32,12.60
2016,06,20,04,33,12.60
2016,06,20,04,34,12.60
2016,06,20,04,35,12.60
2016,06,20,04,36,12.60
2016,06,20,04,37,12.60
2016,06,20,04,38,12.60
2016,06,20,04,39,12.60
2016,06,20,04,40,12.60
2016,06,20,04,41,12.60
2016,06,20,04,42,12.60
2016,06,20,04,43,12.60
2016,06,20,04,44,12.50
2016,06,20,04,45,12.50
2016,06,20,04,46,12.50
2016,06,20,04,47,12.50
2016,06,20,04,48,12.50
2016,06,20,04,49,12.50
2016,06,20,04,50,12.50
2016,06,20,04,51,12.50
2016,06,20,04,52,12.50
2016,06,20,04,53,12.50
2016,06,20,04,54,12.50
2016,06,20,04,55,12.50
2016,06,20,04,56,12.50
2016,06,20,04,57,12.50
2016,06,20,04,58,12.50
2016,06,20,04,59,12.50
2016,06,20,05,00,12.50
2016,06,20,05,01,12.50
2016,06,20,05,02,12.50
2016,06,20,05,03,12.50
2016,06,20,05,04,12.50
2016,06,20,05,05,12.50
2016,06,20,05,06,12.40
2016,06,20,05,07,12.40
2016,06,20,05,08,12.40
2016,06,20,05,09,12.40
2016,06,20,05,10,12.40
2016,06,20,05,11,12.40
2016,06,20,05,12,12.40
2016,06,20,05,13,12.40
2016,06,20,05,14,12.40
2016,06,20,05,15,12.40
2016,06,20,05,16,12.40
2016,06,20,05,17,12.40
2016,06,20,05,18,12.40
2016,06,20,05,19,12.40
2016,06,20,05,20,12.40
2016,06,20,05,21,12.40
2016,06,20,05,22,12.40
2016,06,20,05,23,12.40
2016,06,20,05,24,12.40
2016,06,20,05,25,12.40
2016,06,20,05,26,12.40
2016,06,20,05,27,12.40
2016,06,20,05,28,12.40
2016,06,20,05,29,12.30
2016,06,20,05,30,12.30
2016,06,20,05,31,12.30
2016,06,20,05,32,12.30
2016,06,20,05,33,12.30
2016,06,20,05,34,12.30
2016,06,20,05,35,12.30
2016,06,20,05,36,12.30
2016,06,20,05,37,12.30
2016,06,20,05,38,12.30
2016,06,20,05,39,12.30
2016,06,20,05,40,12.30
2016,06,20,05,41,12.30
2016,06,20,05,42,12.30
2016,06,20,05,43,12.30
2016,06,20,05,44,12.30
2016,06,20,05,45,12.30
2016,06,20,05,46,12.30
2016,06,20,05,47,12.30
2016,06,20,05,48,12.30
2016,06,20,05,49,12.30
2016,06,20,05,50,12.30
2016,06,20,05,51,12.30
2016,06,20,05,52,12.30
2016,06,20,05,53,12.30
2016,06,20,05,54,12.30
2016,06,20,05,55,12.30
2016,06,20,05,56,12.30
2016,06,20,05,57,12.30
2016,06,20,05,58,12.30
2016,06,20,05,59,12.30
2016,06,20,06,00,12.30
2016,06,20,06,01,12.30
2016,06,20,06,02,12.30
2016,06,20,06,03,12.30
2016,06,20,06,04,12.30
2016,06,20,06,05,12.30
2016,06,20,06,06,12.30
2016,06,20,06,07,12.30
2016,06,20,06,08,12.30
2016,06,20,06,09,12.30
2016,06,20,06,10,12.30
2016,06,20,06,11,12.30
2016,06,20,06,12,12.30
2016,06,20,06,13,12.30
2016,06,20,06,14,12.30
2016,06,20,06,15,12.30
2016,06,20,06,16,12.30
2016,06,20,06,17,12.40
2016,06,20,06,18,12.40
2016,06,20,06,19,12.40
2016,06,20,06,20,12.40
2016,06,20,06,21,12.40
2016,06,20,06,22,12.40
2016,06,20,06,23,12.40
2016,06,20,06,24,12.40
2016,06,20,06,25,12.40
2016,06,20,06,26,12.40
2016,06,20,06,27,12.40
2016,06,20,06,28,12.50
2016,06,20,06,29,12.50
2016,06,20,06,30,12.50
2016,06,20,06,31,12.50
2016,06,20,06,32,12.50
2016,06,20,06,33,12.60
2016,06,20,06,34,12.60
2016,06,20,06,35,12.60
2016,06,20,06,36,12.60
2016,06,20,06,37,12.60
2016,06,20,06,38,12.60
2016,06,20,06,39,12.60
2016,06,20,06,40,12.60
2016,06,20,06,41,12.60
2016,06,20,06,42,12.60
2016,06,20,06,43,12.60
2016,06,20,06,44,12.70
2016,06,20,06,45,12.70
2016,06,20,06,46,12.70
2016,06,20,06,47,12.70
2016,06,20,06,48,12.70
2016,06,20,06,49,12.70
2016,06,20,06,50,12.70
2016,06,20,06,51,12.70
2016,06,20,06,52,12.70
2016,06,20,06,53,12.70
2016,06,20,06,54,12.70
2016,06,20,06,55,12.70
2016,06,20,06,56,12.70
2016,06,20,06,57,12.70
2016,06,20,06,58,12.70
2016,06,20,06,59,12.70
2016,06,20,07,00,12.80
2016,06,20,07,01,12.80
2016,06,20,07,02,12.80
2016,06,20,07,03,12.80
2016,06,20,07,04,12.80
2016,06,20,07,05,12.80
2016,06,20,07,06,12.80
2016,06,20,07,07,12.80
2016,06,20,07,08,12.80
2016,06,20,07,09,12.80
2016,06,20,07,10,12.80
2016,06,20,07,11,12.80
2016,06,20,07,12,12.80
2016,06,20,07,13,12.80
2016,06,20,07,14,12.80
2016,06,20,07,15,12.80
2016,06,20,07,16,12.80
2016,06,20,07,17,12.90
2016,06,20,07,18,12.90
2016,06,20,07,19,12.90
2016,06,20,07,20,12.90
2016,06,20,07,21,12.90
2016,06,20,07,22,12.90
2016,06,20,07,23,12.90
2016,06,20,07,24,12.90
2016,06,20,07,25,12.90
2016,06,20,07,26,13.00
2016,06,20,07,27,13.00
2016,06,20,07,28,13.10
2016,06,20,07,29,13.10
2016,06,20,07,30,13.20
2016,06,20,07,31,13.20
2016,06,20,07,32,13.20
2016,06,20,07,33,13.30
2016,06,20,07,34,13.40
2016,06,20,07,35,13.40
2016,06,20,07,36,13.50
2016,06,20,07,37,13.50
2016,06,20,07,38,13.60
2016,06,20,07,39,13.60
2016,06,20,07,40,13.70
2016,06,20,07,41,13.70
2016,06,20,07,42,13.70
2016,06,20,07,43,13.70
2016,06,20,07,44,13.70
2016,06,20,07,45,13.70
2016,06,20,07,46,13.80
2016,06,20,07,47,13.80
2016,06,20,07,48,13.80
2016,06,20,07,49,13.80
2016,06,20,07,50,13.80
2016,06,20,07,51,13.80
2016,06,20,07,52,13.80
2016,06,20,07,53,13.80
2016,06,20,07,54,13.80
2016,06,20,07,55,13.80
2016,06,20,07,56,13.80
2016,06,20,07,57,13.80
2016,06,20,07,58,13.80
2016,06,20,07,59,13.80
2016,06,20,08,00,13.80
2016,06,20,08,01,13.90
2016,06,20,08,02,13.90
2016,06,20,08,03,13.90
2016,06,20,08,04,13.90
2016,06,20,08,05,14.00
2016,06,20,08,06,14.00
2016,06,20,08,07,14.10
2016,06,20,08,08,14.10
2016,06,20,08,09,14.20
2016,06,20,08,10,14.30
2016,06,20,08,11,14.30
2016,06,20,08,12,14.40
2016,06,20,08,13,14.40
2016,06,20,08,14,14.50
2016,06,20,08,15,14.50
2016,06,20,08,16,14.60
2016,06,20,08,17,14.60
2016,06,20,08,18,14.60
2016,06,20,08,19,14.70
2016,06,20,08,20,14.70
2016,06,20,08,21,14.70
2016,06,20,08,22,14.70
2016,06,20,08,23,14.70
2016,06,20,08,24,14.70
2016,06,20,08,25,14.70
2016,06,20,08,26,14.70
2016,06,20,08,27,14.70
2016,06,20,08,28,14.70
2016,06,20,08,29,14.70
2016,06,20,08,30,14.70
2016,06,20,08,31,14.70
2016,06,20,08,32,14.70
2016,06,20,08,33,14.60
2016,06,20,08,34,14.60
2016,06,20,08,35,14.60
2016,06,20,08,36,14.60
2016,06,20,08,37,14.60
2016,06,20,08,38,14.60
2016,06,20,08,39,14.60
2016,06,20,08,40,14.50
2016,06,20,08,41,14.50
2016,06,20,08,42,14.40
2016,06,20,08,43,14.40
2016,06,20,08,44,14.40
2016,06,20,08,45,14.40
2016,06,20,08,46,14.40
2016,06,20,08,47,14.40
2016,06,20,08,48,14.40
2016,06,20,08,49,14.40
2016,06,20,08,50,14.50
2016,06,20,08,51,14.50
2016,06,20,08,52,14.50
2016,06,20,08,53,14.50
2016,06,20,08,54,14.50
2016,06,20,08,55,14.50
2016,06,20,08,56,14.50
2016,06,20,08,57,14.50
2016,06,20,08,58,14.50
2016,06,20,08,59,14.60
2016,06,20,09,00,14.60
2016,06,20,09,01,14.60
2016,06,20,09,02,14.60
2016,06,20,09,03,14.60
2016,06,20,09,04,14.50
2016,06,20,09,05,14.50
2016,06,20,09,06,14.50
2016,06,20,09,07,14.50
2016,06,20,09,08,14.50
2016,06,20,09,09,14.60
2016,06,20,09,10,14.60
2016,06,20,09,11,14.60
2016,06,20,09,12,14.50
2016,06,20,09,13,14.50
2016,06,20,09,14,14.50
2016,06,20,09,15,14.50
2016,06,20,09,16,14.50
2016,06,20,09,17,14.40
2016,06,20,09,18,14.40
2016,06,20,09,19,14.50
2016,06,20,09,20,14.50
2016,06,20,09,21,14.60
2016,06,20,09,22,14.60
2016,06,20,09,23,14.60
2016,06,20,09,24,14.60
2016,06,20,09,25,14.70
2016,06,20,09,26,14.70
2016,06,20,09,27,14.70
2016,06,20,09,28,14.60
2016,06,20,09,29,14.60
2016,06,20,09,30,14.60
2016,06,20,09,31,14.60
2016,06,20,09,32,14.60
2016,06,20,09,33,14.70
2016,06,20,09,34,14.70
2016,06,20,09,35,14.70
2016,06,20,09,36,14.80
2016,06,20,09,37,14.90
2016,06,20,09,38,14.90
2016,06,20,09,39,15.00
2016,06,20,09,40,15.10
2016,06,20,09,41,15.20
2016,06,20,09,42,15.30
2016,06,20,09,43,15.30
2016,06,20,09,44,15.30
2016,06,20,09,45,15.30
2016,06,20,09,46,15.30
2016,06,20,09,47,15.30
2016,06,20,09,48,15.40
2016,06,20,09,49,15.50
2016,06,20,09,50,15.60
2016,06,20,09,51,15.60
2016,06,20,09,52,15.70
2016,06,20,09,53,15.80
2016,06,20,09,54,15.80
2016,06,20,09,55,15.90
2016,06,20,09,56,15.90
2016,06,20,09,57,15.90
2016,06,20,09,58,15.90
2016,06,20,09,59,15.90
2016,06,20,10,00,16.00
2016,06,20,10,01,16.00
2016,06,20,10,02,16.10
2016,06,20,10,03,16.10
2016,06,20,10,04,16.20
2016,06,20,10,05,16.30
2016,06,20,10,06,16.40
2016,06,20,10,07,16.60
2016,06,20,10,08,16.70
2016,06,20,10,09,16.70
2016,06,20,10,10,16.80
2016,06,20,10,11,16.90
2016,06,20,10,12,16.90
2016,06,20,10,13,17.00
2016,06,20,10,14,17.00
2016,06,20,10,15,17.00
2016,06,20,10,16,17.10
2016,06,20,10,17,17.10
2016,06,20,10,18,17.10
2016,06,20,10,19,17.10
2016,06,20,10,20,17.10
2016,06,20,10,21,17.10
2016,06,20,10,22,17.10
2016,06,20,10,23,17.00
2016,06,20,10,24,17.00
2016,06,20,10,25,17.00
2016,06,20,10,26,17.00
2016,06,20,10,27,17.10
2016,06,20,10,28,17.00
2016,06,20,10,29,17.00
2016,06,20,10,30,16.90
2016,06,20,10,31,16.90
2016,06,20,10,32,16.90
2016,06,20,10,33,17.00
2016,06,20,10,34,17.00
2016,06,20,10,35,17.00
2016,06,20,10,36,17.00
2016,06,20,10,37,17.00
2016,06,20,10,38,17.00
2016,06,20,10,39,17.10
2016,06,20,10,40,17.20
2016,06,20,10,41,17.20
2016,06,20,10,42,17.30
2016,06,20,10,43,17.40
2016,06,20,10,44,17.40
2016,06,20,10,45,17.50
2016,06,20,10,46,17.60
2016,06,20,10,47,17.60
2016,06,20,10,48,17.60
2016,06,20,10,49,17.60
2016,06,20,10,50,17.70
2016,06,20,10,51,17.70
2016,06,20,10,52,17.80
2016,06,20,10,53,17.80
2016,06,20,10,54,17.70
2016,06,20,10,55,17.70
2016,06,20,10,56,17.60
2016,06,20,10,57,17.60
2016,06,20,10,58,17.60
2016,06,20,10,59,17.60
2016,06,20,11,00,17.60
2016,06,20,11,01,17.60
2016,06,20,11,02,17.70
2016,06,20,11,03,17.80
2016,06,20,11,04,17.90
2016,06,20,11,05,18.00
2016,06,20,11,06,18.10
2016,06,20,11,07,18.30
2016,06,20,11,08,18.40
2016,06,20,11,09,18.50
2016,06,20,11,10,18.60
2016,06,20,11,11,18.80
2016,06,20,11,12,18.90
2016,06,20,11,13,19.00
2016,06,20,11,14,19.10
2016,06,20,11,15,19.10
2016,06,20,11,16,19.10
2016,06,20,11,17,19.10
2016,06,20,11,18,19.20
2016,06,20,11,19,19.20
2016,06,20,11,20,19.30
2016,06,20,11,21,19.30
2016,06,20,11,22,19.40
2016,06,20,11,23,19.30
2016,06,20,11,24,19.30
2016,06,20,11,25,19.30
2016,06,20,11,26,19.20
2016,06,20,11,27,19.20
2016,06,20,11,28,19.20
2016,06,20,11,29,19.20
2016,06,20,11,30,19.30
2016,06,20,11,31,19.30
2016,06,20,11,32,19.30
2016,06,20,11,33,19.30
2016,06,20,11,34,19.30
2016,06,20,11,35,19.30
2016,06,20,11,36,19.40
2016,06,20,11,37,19.40
2016,06,20,11,38,19.50
2016,06,20,11,39,19.60
2016,06,20,11,40,19.70
2016,06,20,11,41,19.70
2016,06,20,11,42,19.80
2016,06,20,11,43,19.80
2016,06,20,11,44,19.90
2016,06,20,11,45,19.90
2016,06,20,11,46,19.90
2016,06,20,11,47,19.90
2016,06,20,11,48,19.80
2016,06,20,11,49,19.80
2016,06,20,11,50,19.80
2016,06,20,11,51,19.90
2016,06,20,11,52,20.00
2016,06,20,11,53,20.10
2016,06,20,11,54,20.20
2016,06,20,11,55,20.30
2016,06,20,11,56,20.40
2016,06,20,11,57,20.50
2016,06,20,11,58,20.60
2016,06,20,11,59,20.70
2016,06,20,12,00,20.70
2016,06,20,12,01,20.80
2016,06,20,12,02,20.80
2016,06,20,12,03,20.90
2016,06,20,12,04,21.00
2016,06,20,12,05,21.00
2016,06,20,12,06,21.10
2016,06,20,12,07,21.20
2016,06,20,12,08,21.20
2016,06,20,12,09,21.30
2016,06,20,12,10,21.30
2016,06,20,12,11,21.30
2016,06,20,12,12,21.20
2016,06,20,12,13,21.20
2016,06,20,12,14,21.10
2016,06,20,12,15,21.00
2016,06,20,12,16,21.00
2016,06,20,12,17,20.90
2016,06,20,12,18,20.80
2016,06,20,12,19,20.80
2016,06,20,12,20,20.90
2016,06,20,12,21,20.90
2016,06,20,12,22,20.90
2016,06,20,12,23,20.90
2016,06,20,12,24,20.90
2016,06,20,12,25,21.00
2016,06,20,12,26,21.10
2016,06,20,12,27,21.10
2016,06,20,12,28,21.20
2016,06,20,12,29,21.30
2016,06,20,12,30,21.30
2016,06,20,12,31,21.40
2016,06,20,12,32,21.40
2016,06,20,12,33,21.50
2016,06,20,12,34,21.40
2016,06,20,12,35,21.40
2016,06,20,12,36,21.40
2016,06,20,12,37,21.40
2016,06,20,12,38,21.40
2016,06,20,12,39,21.40
2016,06,20,12,40,21.40
2016,06,20,12,41,21.40
2016,06,20,12,42,21.40
2016,06,20,12,43,21.30
2016,06,20,12,44,21.30
2016,06,20,12,45,21.30
2016,06,20,12,46,21.10
2016,06,20,12,47,21.00
2016,06,20,12,48,21.00
2016,06,20,12,49,20.90
2016,06,20,12,50,20.90
2016,06,20,12,51,20.80
2016,06,20,12,52,20.70
2016,06,20,12,53,20.70
2016,06,20,12,54,20.60
2016,06,20,12,55,20.50
2016,06,20,12,56,20.40
2016,06,20,12,57,20.30
2016,06,20,12,58,20.30
2016,06,20,12,59,20.30
2016,06,20,13,00,20.30
2016,06,20,13,01,20.20
2016,06,20,13,02,20.20
2016,06,20,13,03,20.20
2016,06,20,13,04,20.20
2016,06,20,13,05,20.20
2016,06,20,13,06,20.20
2016,06,20,13,07,20.20
2016,06,20,13,08,20.20
2016,06,20,13,09,20.20
2016,06,20,13,10,20.30
2016,06,20,13,11,20.40
2016,06,20,13,12,20.50
2016,06,20,13,13,20.50
2016,06,20,13,14,20.60
2016,06,20,13,15,20.70
2016,06,20,13,16,20.70
2016,06,20,13,17,20.70
2016,06,20,13,18,20.70
2016,06,20,13,19,20.70
2016,06,20,13,20,20.60
2016,06,20,13,21,20.60
2016,06,20,13,22,20.60
2016,06,20,13,23,20.50
2016,06,20,13,24,20.50
2016,06,20,13,25,20.40
2016,06,20,13,26,20.40
2016,06,20,13,27,20.30
2016,06,20,13,28,20.30
2016,06,20,13,29,20.30
2016,06,20,13,30,20.30
2016,06,20,13,31,20.30
2016,06,20,13,32,20.30
2016,06,20,13,33,20.20
2016,06,20,13,34,20.20
2016,06,20,13,35,20.20
2016,06,20,13,36,20.30
2016,06,20,13,37,20.40
2016,06,20,13,38,20.40
2016,06,20,13,39,20.40
2016,06,20,13,40,20.40
2016,06,20,13,41,20.30
2016,06,20,13,42,20.30
2016,06,20,13,43,20.30
2016,06,20,13,44,20.30
2016,06,20,13,45,20.30
2016,06,20,13,46,20.30
2016,06,20,13,47,20.30
2016,06,20,13,48,20.30
2016,06,20,13,49,20.40
2016,06,20,13,50,20.30
2016,06,20,13,51,20.30
2016,06,20,13,52,20.20
2016,06,20,13,53,20.10
2016,06,20,13,54,20.10
2016,06,20,13,55,20.00
2016,06,20,13,56,20.00
2016,06,20,13,57,19.90
2016,06,20,13,58,19.90
2016,06,20,13,59,19.90
2016,06,20,14,00,19.80
2016,06,20,14,01,19.80
2016,06,20,14,02,19.80
2016,06,20,14,03,19.70
2016,06,20,14,04,19.70
2016,06,20,14,05,19.70
2016,06,20,14,06,19.80
2016,06,20,14,07,19.80
2016,06,20,14,08,19.80
2016,06,20,14,09,19.80
2016,06,20,14,10,19.80
2016,06,20,14,11,19.90
2016,06,20,14,12,19.90
2016,06,20,14,13,19.90
2016,06,20,14,14,20.00
2016,06,20,14,15,20.10
2016,06,20,14,16,20.20
2016,06,20,14,17,20.30
2016,06,20,14,18,20.40
2016,06,20,14,19,20.40
2016,06,20,14,20,20.40
2016,06,20,14,21,20.50
2016,06,20,14,22,20.50
2016,06,20,14,23,20.60
2016,06,20,14,24,20.60
2016,06,20,14,25,20.70
2016,06,20,14,26,20.70
2016,06,20,14,27,20.80
2016,06,20,14,28,20.80
2016,06,20,14,29,20.90
2016,06,20,14,30,20.90
2016,06,20,14,31,20.90
2016,06,20,14,32,20.90
2016,06,20,14,33,21.00
2016,06,20,14,34,21.00
2016,06,20,14,35,21.10
2016,06,20,14,36,21.20
2016,06,20,14,37,21.20
2016,06,20,14,38,21.20
2016,06,20,14,39,21.20
2016,06,20,14,40,21.10
2016,06,20,14,41,20.90
2016,06,20,14,42,20.90
2016,06,20,14,43,20.80
2016,06,20,14,44,20.80
2016,06,20,14,45,20.80
2016,06,20,14,46,20.80
2016,06,20,14,47,20.80
2016,06,20,14,48,20.90
2016,06,20,14,49,20.90
2016,06,20,14,50,21.00
2016,06,20,14,51,21.00
2016,06,20,14,52,20.90
2016,06,20,14,53,21.00
2016,06,20,14,54,21.00
2016,06,20,14,55,21.10
2016,06,20,14,56,21.20
2016,06,20,14,57,21.20
2016,06,20,14,58,21.30
2016,06,20,14,59,21.30
2016,06,20,15,00,21.30
2016,06,20,15,01,21.40
2016,06,20,15,02,21.40
2016,06,20,15,03,21.60
2016,06,20,15,04,21.70
2016,06,20,15,05,21.90
2016,06,20,15,06,22.00
2016,06,20,15,07,22.10
2016,06,20,15,08,22.20
2016,06,20,15,09,22.10
2016,06,20,15,10,22.10
2016,06,20,15,11,22.00
2016,06,20,15,12,21.90
2016,06,20,15,13,21.90
2016,06,20,15,14,21.80
2016,06,20,15,15,21.70
2016,06,20,15,16,21.60
2016,06,20,15,17,21.60
2016,06,20,15,18,21.60
2016,06,20,15,19,21.50
2016,06,20,15,20,21.40
2016,06,20,15,21,21.40
2016,06,20,15,22,21.40
2016,06,20,15,23,21.40
2016,06,20,15,24,21.40
2016,06,20,15,25,21.40
2016,06,20,15,26,21.40
2016,06,20,15,27,21.40
2016,06,20,15,28,21.40
2016,06,20,15,29,21.40
2016,06,20,15,30,21.40
2016,06,20,15,31,21.40
2016,06,20,15,32,21.50
2016,06,20,15,33,21.60
2016,06,20,15,34,21.60
2016,06,20,15,35,21.70
2016,06,20,15,36,21.80
2016,06,20,15,37,21.80
2016,06,20,15,38,21.80
2016,06,20,15,39,21.80
2016,06,20,15,40,21.70
2016,06,20,15,41,21.60
2016,06,20,15,42,21.60
2016,06,20,15,43,21.60
2016,06,20,15,44,21.60
2016,06,20,15,45,21.60
2016,06,20,15,46,21.60
2016,06,20,15,47,21.60
2016,06,20,15,48,21.60
2016,06,20,15,49,21.60
2016,06,20,15,50,21.60
2016,06,20,15,51,21.60
2016,06,20,15,52,21.60
2016,06,20,15,53,21.60
2016,06,20,15,54,21.70
2016,06,20,15,55,21.70
2016,06,20,15,56,21.60
2016,06,20,15,57,21.60
2016,06,20,15,58,21.50
2016,06,20,15,59,21.50
2016,06,20,16,00,21.60
2016,06,20,16,01,21.60
2016,06,20,16,02,21.70
2016,06,20,16,03,21.80
2016,06,20,16,04,21.90
2016,06,20,16,05,21.90
2016,06,20,16,06,21.90
2016,06,20,16,07,22.00
2016,06,20,16,08,22.00
2016,06,20,16,09,22.00
2016,06,20,16,10,21.90
2016,06,20,16,11,21.80
2016,06,20,16,12,21.80
2016,06,20,16,13,21.80
2016,06,20,16,14,21.80
2016,06,20,16,15,21.80
2016,06,20,16,16,21.90
2016,06,20,16,17,22.00
2016,06,20,16,18,22.10
2016,06,20,16,19,22.20
2016,06,20,16,20,22.20
2016,06,20,16,21,22.10
2016,06,20,16,22,22.00
2016,06,20,16,23,21.90
2016,06,20,16,24,21.80
2016,06,20,16,25,21.70
2016,06,20,16,26,21.60
2016,06,20,16,27,21.40
2016,06,20,16,28,21.30
2016,06,20,16,29,21.20
2016,06,20,16,30,21.00
2016,06,20,16,31,20.80
2016,06,20,16,32,20.70
2016,06,20,16,33,20.60
2016,06,20,16,34,20.50
2016,06,20,16,35,20.40
2016,06,20,16,36,20.30
2016,06,20,16,37,20.30
2016,06,20,16,38,20.20
2016,06,20,16,39,20.20
2016,06,20,16,40,20.20
2016,06,20,16,41,20.10
2016,06,20,16,42,20.00
2016,06,20,16,43,19.90
2016,06,20,16,44,19.90
2016,06,20,16,45,20.00
2016,06,20,16,46,20.20
2016,06,20,16,47,20.30
2016,06,20,16,48,20.50
2016,06,20,16,49,20.70
2016,06,20,16,50,20.80
2016,06,20,16,51,20.80
2016,06,20,16,52,20.80
2016,06,20,16,53,20.90
2016,06,20,16,54,20.80
2016,06,20,16,55,20.80
2016,06,20,16,56,20.80
2016,06,20,16,57,20.70
2016,06,20,16,58,20.60
2016,06,20,16,59,20.60
2016,06,20,17,00,20.70
2016,06,20,17,01,20.70
2016,06,20,17,02,20.70
2016,06,20,17,03,20.70
2016,06,20,17,04,20.70
2016,06,20,17,05,20.70
2016,06,20,17,06,20.70
2016,06,20,17,07,20.70
2016,06,20,17,08,20.70
2016,06,20,17,09,20.80
2016,06,20,17,10,20.80
2016,06,20,17,11,20.80
2016,06,20,17,12,20.90
2016,06,20,17,13,21.00
2016,06,20,17,14,21.10
2016,06,20,17,15,21.30
2016,06,20,17,16,21.40
2016,06,20,17,17,21.50
2016,06,20,17,18,21.50
2016,06,20,17,19,21.60